Preview of NWS' New Version of Forecast
This preview is not operational and should not be used for support decisions.

Regional Weather Roundup (RWR)

Issued by National Weather Service (NWS)

                            
000
ASUS44 KMEG 181900
RWRTN 
TENNESSEE HOURLY STATE WEATHER ROUNDUP
NATIONAL WEATHER SERVICE MEMPHIS TN
100 PM CST MON FEB 18 2019

TNZ002-004-019-021-049-052-054-088>092-182000-
WEST TENNESSEE
  
CITY           SKY/WX    TMP DP  RH WIND       PRES   REMARKS
MEMPHIS INTL   PTSUNNY   42  26  53 N9        30.37F                  
NWS MEMPHIS      N/A     40 N/A N/A MISG        N/A                   
JACKSON        FAIR      40  26  57 N10       30.39F WCI  33          
DYERSBURG      FAIR      37  25  61 N8        30.42F WCI  31          
$$

TNZ008-025-027-028-033-062-065-066-182000-
NORTH MIDDLE TENNESSEE
  
CITY           SKY/WX    TMP DP  RH WIND       PRES   REMARKS
NASHVILLE      CLOUDY    41  25  53 NW9       30.36F                  
CLARKSVILLE    PTSUNNY   36  23  59 NW8       30.39F WCI  30          
SMYRNA         PTSUNNY   40  29  64 NW10      30.38S WCI  33          
CROSSVILLE     FAIR      40  28  62 NW12G17   30.25F WCI  33          
$$

TNZ061-075-076-078-094-096-097-182000-
SOUTH MIDDLE TENNESSEE
  
CITY           SKY/WX    TMP DP  RH WIND       PRES   REMARKS
$$

TNZ017-018-042-046-047-182000-
NORTHEAST TENNESSEE
  
CITY           SKY/WX    TMP DP  RH WIND       PRES   REMARKS
TRI CITIES     FAIR      48  34  58 W15       30.19F                  
$$

TNZ012-013-036-069-073-074-182000-
CENTRAL EAST TENNESSEE
  
CITY           SKY/WX    TMP DP  RH WIND       PRES   REMARKS
KNOXVILLE      PTSUNNY   49  34  56 W13       30.24F                  
OAK RIDGE      FAIR      46  32  58 VRB6      30.26F                  
$$

TNZ083-085-099-182000-
SOUTHEAST TENNESSEE
  
CITY           SKY/WX    TMP DP  RH WIND       PRES   REMARKS
CHATTANOOGA    PTSUNNY   50  32  50 N7        30.27F                  
$$

SKY/WX REPORTED AS FAIR MEANS FEW OR NO CLOUDS BELOW
12 THOUSAND FEET.